Flag for United Kingdom Weather past 2 weeks in Durham, England, United Kingdom

Now
54 °F

Clear.


Feels Like: 54 °F
Forecast: 53 / 67 °F
Wind: 2 mph from North

Location: Newcastle

Current Time: Jul 29, 2014 at 5:46:16 AM

Latest Report: Jul 29, 2014 at 5:20 AM


Visibility: 10 mi

Pressure: 30.01 "Hg

Humidity: 94%

Dew point: 52 °F

Location of DurhamLocation

Historic Weather in Durham — Graph

°F

Durham temperature yesterday

Maximum temperature yesterday: 70 °F (at 3:20 PM)
Minimum temperature yesterday: 48 °F (at 2:20 AM)
Average temperature yesterday: 60 °F

Past Weeks' High & Low Weather Summary

 TemperatureHumidityPressure
High79 °F (Jul 26, 12:20 PM)100% (Jul 16, 3:20 AM)30.30 "Hg (Jul 16, 3:20 AM)
Low48 °F (Jul 14, 5:20 AM)39% (Jul 26, 12:50 PM)29.74 "Hg (Jul 14, 5:20 PM)
Average62 °F82%30.04 "Hg
* Reported Jul 14 4:20 AM — Jul 29 4:50 AM, Durham, Weather by CustomWeather, © 2014

Note: Actual official high and low records may vary slightly from our data, if they occured in-between our weather recording intervals... More about our weather records

Advertising

Durham weather history for previous 24 hours

 ConditionsComfort  
Time TempWeatherWind HumidityBarometerVisibility
4:50 AM
Jul 29
54 °FClear.5 mph88%30.01 "Hg10 mi
3:50 AM54 °FClear.5 mph94%30.01 "Hg10 mi
3:20 AM55 °FClear.8 mph88%30.04 "Hg10 mi
2:50 AM55 °FClear.7 mph94%30.04 "Hg10 mi
2:20 AM55 °FPassing clouds.5 mph94%30.04 "HgN/A
1:50 AM55 °FPassing clouds.2 mph88%30.04 "HgN/A
1:20 AM57 °FPassing clouds.2 mph88%30.04 "HgN/A
12:50 AM57 °FPassing clouds.3 mph82%30.04 "HgN/A
12:20 AM57 °FPassing clouds.3 mph88%30.07 "HgN/A
11:50 PM
Jul 28
59 °FPassing clouds.3 mph82%30.07 "HgN/A
11:20 PM59 °FPassing clouds.5 mph82%30.04 "HgN/A
10:50 PM59 °FPassing clouds.5 mph82%30.04 "HgN/A
10:20 PM61 °FClear.2 mph72%30.04 "Hg10 mi
9:50 PM61 °FSunny.2 mph72%30.07 "Hg10 mi
9:20 PM63 °FSunny.2 mph68%30.07 "Hg10 mi
8:20 PM64 °FSunny.3 mph64%30.04 "Hg10 mi
7:50 PM64 °FPassing clouds.6 mph64%30.04 "HgN/A
7:20 PM66 °FSunny.3 mph60%30.04 "Hg10 mi
6:50 PM66 °FPassing clouds.6 mph60%30.04 "HgN/A
6:20 PM66 °FPassing clouds.8 mph60%30.04 "HgN/A
5:50 PM66 °FPassing clouds.8 mph64%30.04 "HgN/A
5:20 PM68 °FPassing clouds.7 mph60%30.04 "HgN/A
4:50 PM68 °FPassing clouds.8 mph60%30.04 "HgN/A
4:20 PM70 °FPassing clouds.6 mph57%30.04 "HgN/A
3:50 PM68 °FPassing clouds.7 mph60%30.04 "HgN/A
3:20 PM70 °FPassing clouds.5 mph57%30.04 "HgN/A
2:50 PM68 °FPassing clouds.7 mph60%30.07 "HgN/A
2:20 PM68 °FPassing clouds.7 mph60%30.07 "HgN/A
1:50 PM68 °FPassing clouds.6 mph60%30.07 "HgN/A
1:20 PM68 °FPassing clouds.6 mph60%30.07 "HgN/A
12:50 PM68 °FPassing clouds.6 mph60%30.07 "HgN/A
12:20 PM66 °FPassing clouds.5 mph64%30.04 "HgN/A
11:20 AM64 °FPassing clouds.2 mph64%30.04 "HgN/A
10:20 AM64 °FPassing clouds.2 mph68%30.07 "HgN/A
9:50 AM66 °FPassing clouds.2 mph64%30.07 "HgN/A
9:20 AM64 °FPassing clouds.2 mph68%30.07 "HgN/A
8:50 AM61 °FPassing clouds.3 mph77%30.04 "HgN/A
8:20 AM61 °FSunny.No wind77%30.04 "Hg10 mi
7:50 AM59 °FSunny.No wind88%30.04 "Hg10 mi
7:20 AM57 °FSunny.No wind94%30.04 "Hg10 mi
6:50 AM54 °FPassing clouds.2 mph94%30.04 "HgN/A
6:20 AM52 °FPassing clouds.5 mph94%30.01 "HgN/A
5:50 AM50 °FPassing clouds.5 mph94%30.01 "HgN/A
5:20 AM48 °FPassing clouds.No wind100%30.01 "HgN/A
Weather by CustomWeather, © 2014

See weather overviewHow to use our weather pages